Meteo pe oră la Dadaj

Astăzi, 12 Aprilie, Luni

Timp Temperatura Precipitaţii Vânt Presiune Umiditate
00:00 +11°C° 0 mm 4 m/s 750 mmHg 73%
01:00 +11°C° 0 mm 4 m/s 750 mmHg 76%
02:00 +11°C° 0 mm 4 m/s 750 mmHg 77%
03:00 +10°C° 0 mm 4 m/s 750 mmHg 77%
04:00 +10°C° 0 mm 4 m/s 750 mmHg 78%
05:00 +10°C° 0 mm 4 m/s 750 mmHg 78%
06:00 +10°C° 0 mm 4 m/s 750 mmHg 79%
07:00 +10°C° 0 mm 4 m/s 750 mmHg 79%
08:00 +11°C° 0 mm 4 m/s 750 mmHg 77%
09:00 +11°C° 0 mm 4 m/s 750 mmHg 75%
10:00 +12°C° 0 mm 4 m/s 750 mmHg 73%
11:00 +12°C° 0.1 mm 4 m/s 750 mmHg 72%
12:00 +12°C° 0.1 mm 4 m/s 750 mmHg 72%
13:00 +12°C° 0.1 mm 4 m/s 750 mmHg 72%
14:00 +10°C° 0.2 mm 4 m/s 751 mmHg 78%
15:00 +7°C° 0.2 mm 5 m/s 751 mmHg 83%
16:00 +5°C° 0.2 mm 5 m/s 751 mmHg 89%
17:00 +3°C° 0.5 mm 5 m/s 752 mmHg 90%
18:00 +2°C° 0.5 mm 5 m/s 752 mmHg 92%
19:00 +1°C° 0.5 mm 5 m/s 753 mmHg 93%
20:00 +1°C° 0.3 mm 5 m/s 753 mmHg 94%
21:00 +1°C° 0.3 mm 5 m/s 753 mmHg 94%
22:00 0°C° 0.3 mm 4 m/s 753 mmHg 95%
23:00 +1°C° 0 mm 4 m/s 754 mmHg 93%

Mâine, 13 Aprilie, Marţi

Timp Temperatura Precipitaţii Vânt Presiune Umiditate
00:00 +1°C° 0 mm 4 m/s 754 mmHg 90%
01:00 +1°C° 0 mm 4 m/s 754 mmHg 87%
02:00 +2°C° 0 mm 3 m/s 754 mmHg 88%
03:00 +2°C° 0 mm 3 m/s 755 mmHg 88%
04:00 +2°C° 0 mm 3 m/s 755 mmHg 88%
05:00 +2°C° 0 mm 3 m/s 755 mmHg 86%
06:00 +2°C° 0 mm 3 m/s 755 mmHg 83%
07:00 +3°C° 0 mm 3 m/s 756 mmHg 80%
08:00 +4°C° 0 mm 4 m/s 756 mmHg 71%
09:00 +5°C° 0 mm 4 m/s 756 mmHg 62%
10:00 +6°C° 0 mm 4 m/s 756 mmHg 53%
11:00 +6°C° 0 mm 4 m/s 756 mmHg 50%
12:00 +7°C° 0 mm 4 m/s 756 mmHg 47%
13:00 +7°C° 0 mm 4 m/s 756 mmHg 44%
14:00 +7°C° 0 mm 4 m/s 756 mmHg 44%
15:00 +7°C° 0 mm 4 m/s 756 mmHg 44%
16:00 +7°C° 0 mm 4 m/s 756 mmHg 44%
17:00 +6°C° 0 mm 4 m/s 756 mmHg 49%
18:00 +5°C° 0 mm 3 m/s 756 mmHg 53%
19:00 +4°C° 0 mm 3 m/s 756 mmHg 58%
20:00 +3°C° 0 mm 3 m/s 756 mmHg 62%
21:00 +3°C° 0 mm 3 m/s 756 mmHg 65%
22:00 +3°C° 0 mm 2 m/s 756 mmHg 69%
23:00 +3°C° 0 mm 2 m/s 756 mmHg 72%

Poimâine, 14 Aprilie, Miercuri

Timp Temperatura Precipitaţii Vânt Presiune Umiditate
00:00 +3°C° 0 mm 2 m/s 756 mmHg 75%
01:00 +3°C° 0 mm 2 m/s 755 mmHg 78%
02:00 +3°C° 0 mm 2 m/s 755 mmHg 81%
03:00 +2°C° 0 mm 2 m/s 755 mmHg 84%
04:00 +2°C° 0 mm 2 m/s 755 mmHg 87%
05:00 +2°C° 0 mm 3 m/s 755 mmHg 85%
06:00 +2°C° 0 mm 3 m/s 755 mmHg 82%
07:00 +3°C° 0 mm 4 m/s 755 mmHg 80%
08:00 +3°C° 0 mm 4 m/s 755 mmHg 73%
09:00 +4°C° 0 mm 4 m/s 755 mmHg 66%
10:00 +5°C° 0 mm 5 m/s 755 mmHg 58%
11:00 +6°C° 0 mm 5 m/s 754 mmHg 56%
12:00 +5°C° 0 mm 6 m/s 754 mmHg 53%
13:00 +7°C° 0 mm 6 m/s 754 mmHg 50%
14:00 +7°C° 0 mm 6 m/s 754 mmHg 54%
15:00 +7°C° 0 mm 6 m/s 754 mmHg 57%
16:00 +5°C° 0 mm 6 m/s 753 mmHg 61%
17:00 +4°C° 0 mm 6 m/s 754 mmHg 64%
18:00 +3°C° 0 mm 6 m/s 754 mmHg 68%
19:00 +2°C° 0 mm 5 m/s 754 mmHg 71%
20:00 +2°C° 0 mm 5 m/s 754 mmHg 72%
21:00 +2°C° 0 mm 5 m/s 754 mmHg 72%
22:00 +2°C° 0 mm 5 m/s 754 mmHg 73%
23:00 +1°C° 0 mm 5 m/s 754 mmHg 77%

15 Aprilie, Joi

Timp Temperatura Precipitaţii Vânt Presiune Umiditate
00:00 +1°C° 0 mm 5 m/s 753 mmHg 81%
01:00 -1°C° 0 mm 6 m/s 753 mmHg 85%
02:00 -1°C° 0.1 mm 6 m/s 753 mmHg 88%
03:00 -1°C° 0.1 mm 6 m/s 753 mmHg 91%
04:00 -2°C° 0.1 mm 6 m/s 753 mmHg 94%
05:00 -2°C° 0.1 mm 6 m/s 753 mmHg 93%
06:00 -1°C° 0.1 mm 6 m/s 753 mmHg 93%
07:00 -1°C° 0.1 mm 6 m/s 754 mmHg 92%
08:00 -1°C° 0.1 mm 6 m/s 754 mmHg 91%
09:00 -1°C° 0.1 mm 6 m/s 754 mmHg 90%
10:00 +1°C° 0.1 mm 6 m/s 754 mmHg 89%
11:00 +1°C° 0 mm 6 m/s 755 mmHg 86%
12:00 +2°C° 0 mm 6 m/s 755 mmHg 84%
13:00 +2°C° 0 mm 6 m/s 755 mmHg 82%
14:00 +3°C° 0 mm 5 m/s 755 mmHg 77%
15:00 +5°C° 0 mm 5 m/s 755 mmHg 73%
16:00 +6°C° 0 mm 4 m/s 755 mmHg 68%
17:00 +5°C° 0 mm 4 m/s 755 mmHg 71%
18:00 +5°C° 0 mm 3 m/s 755 mmHg 74%
19:00 +4°C° 0 mm 3 m/s 755 mmHg 77%
20:00 +4°C° 0 mm 3 m/s 755 mmHg 76%
21:00 +3°C° 0 mm 4 m/s 755 mmHg 74%
22:00 +3°C° 0 mm 4 m/s 755 mmHg 73%
23:00 +1°C° 0 mm 4 m/s 755 mmHg 76%

16 Aprilie, Vineri

Timp Temperatura Precipitaţii Vânt Presiune Umiditate
00:00 +1°C° 0 mm 4 m/s 755 mmHg 79%
01:00 +1°C° 0 mm 4 m/s 755 mmHg 82%
02:00 +1°C° 0 mm 4 m/s 755 mmHg 84%
03:00 +1°C° 0 mm 4 m/s 755 mmHg 87%
04:00 +1°C° 0 mm 5 m/s 755 mmHg 89%
05:00 +1°C° 0.1 mm 5 m/s 755 mmHg 90%
06:00 +1°C° 0.1 mm 5 m/s 755 mmHg 90%
07:00 +1°C° 0.1 mm 5 m/s 756 mmHg 91%
08:00 +1°C° 0.3 mm 5 m/s 756 mmHg 90%
09:00 +1°C° 0.3 mm 5 m/s 756 mmHg 89%
10:00 +1°C° 0.3 mm 5 m/s 756 mmHg 88%
11:00 +1°C° 0.6 mm 5 m/s 756 mmHg 89%
12:00 +2°C° 0.6 mm 5 m/s 757 mmHg 90%
13:00 +2°C° 0.6 mm 5 m/s 757 mmHg 91%
14:00 +3°C° 0.6 mm 4 m/s 757 mmHg 91%
15:00 +3°C° 0.6 mm 4 m/s 757 mmHg 91%
16:00 +4°C° 0.6 mm 4 m/s 758 mmHg 91%
17:00 +4°C° 0 mm 4 m/s 758 mmHg 91%
18:00 +4°C° 0 mm 4 m/s 758 mmHg 91%
19:00 +5°C° 0 mm 4 m/s 758 mmHg 91%
20:00 +5°C° 0 mm 4 m/s 759 mmHg 89%
21:00 +4°C° 0 mm 4 m/s 759 mmHg 88%
22:00 +4°C° 0 mm 4 m/s 759 mmHg 87%
23:00 +4°C° 0 mm 4 m/s 760 mmHg 87%

17 Aprilie, Sâmbătă

Timp Temperatura Precipitaţii Vânt Presiune Umiditate
00:00 +4°C° 0 mm 3 m/s 760 mmHg 87%
01:00 +4°C° 0 mm 3 m/s 760 mmHg 87%
02:00 +4°C° 0 mm 3 m/s 760 mmHg 87%
03:00 +4°C° 0 mm 3 m/s 760 mmHg 87%
04:00 +3°C° 0 mm 4 m/s 760 mmHg 87%
05:00 +3°C° 0 mm 4 m/s 761 mmHg 84%
06:00 +4°C° 0 mm 4 m/s 761 mmHg 80%
07:00 +4°C° 0 mm 4 m/s 761 mmHg 77%
08:00 +5°C° 0 mm 4 m/s 761 mmHg 69%
09:00 +7°C° 0 mm 5 m/s 761 mmHg 62%
10:00 +9°C° 0 mm 5 m/s 761 mmHg 55%
11:00 +10°C° 0 mm 5 m/s 761 mmHg 51%
12:00 +12°C° 0 mm 5 m/s 761 mmHg 47%
13:00 +13°C° 0 mm 5 m/s 761 mmHg 44%
14:00 +13°C° 0 mm 5 m/s 761 mmHg 45%
15:00 +13°C° 0 mm 4 m/s 761 mmHg 45%
16:00 +12°C° 0 mm 4 m/s 761 mmHg 46%
17:00 +11°C° 0 mm 4 m/s 761 mmHg 54%
18:00 +9°C° 0 mm 3 m/s 761 mmHg 61%
19:00 +7°C° 0 mm 3 m/s 761 mmHg 69%
20:00 +5°C° 0 mm 3 m/s 761 mmHg 71%
21:00 +4°C° 0 mm 3 m/s 762 mmHg 73%
22:00 +4°C° 0 mm 3 m/s 762 mmHg 75%
23:00 +4°C° 0 mm 2 m/s 762 mmHg 76%
Arată mai mult

Formular de consimțământ

Meteoprog și furnizorii noștri de servicii pot stoca și accesa date personale, precum cookies, identificatori de dispozitiv sau alte tehnologii similare pe dispozitivul dumneavoastră și procesa astfel de date pentru a personaliza conținutul și reclamele, dar și pentru a oferi caracteristici de social media și pentru a analiza traficul.

  • Stocarea și/sau accesarea informațiilor pe dispozitivul dumneavoastră

    Cookies, identificatori de dispozitiv sau alte informații pot fi stocate sau accesate pe dispozitiv în scopurile indicate mai sus.

  • Reclame și conținut personalizat, evaluarea reclamelor și a conținutului, informații despre audiențe și dezvoltarea produselor

    Reclamele și conținutul pot fi personalizate pe baza unui profil. Pot fi adăugate date suplimentare pentru a personaliza mai bine reclamele și conținutul. Performanța reclamelor și conținutului poate fi măsurată. Pot fi obținute informații despre utilizatorii care au văzut reclamele și conținutul. Aceste date pot fi utilizate pentru a dezvolta sau îmbunătăți experiența utilizatorilor, sistemele și software-ul.

Dând clic pe ‘Sunt de acord’, permiteți utilizarea cookie-urilor menționate, a identificatorilor de dispozitiv, balizelor web sau altor tehnologii similare. Setările pot fi modificate din browser-ul dispozitivului dumneavoastră.

În anumite scopuri, interesele legitime pot prima asupra consimțământului. Puteți citi mai multe informații în acest sens în Politica privind Confidențialitatea Datelor și Cookie.